Monument Pass, CO

3:54 PM MDT on July 20, 2017 (GMT -0600)
Monument Pass

Weather History for KMNH - October, 2012

Change the Weather History Date:

Saturday, October 6, 2012

  Actual Average Record
Temperature  
Mean Temperature 29 °F -  
Max Temperature 32 °F - 75 °F (2007)
Min Temperature 26 °F - 26 °F (2012)
Degree Days  
Heating Degree Days 36    
Month to date heating degree days  
Cooling Degree Days 0    
Month to date cooling degree days  
Moisture  
Dew Point 27 °F    
Average Humidity 93    
Maximum Humidity 100    
Minimum Humidity 86    
Precipitation  
Precipitation 0.02 in - 0.29 in (2015)
Sea Level Pressure  
Sea Level Pressure 30.21 in    
Wind  
Wind Speed 8 mph (NE)    
Max Wind Speed 14 mph    
Max Gust Speed 20 mph    
Visibility 8 miles    
Events Snow    
T = Trace of Precipitation, MM = Missing Value Source: NWS Daily Summary

Daily Weather History Graph

Daily Weather History Graph

Search for Another Location

Airport or City:

Trip Planner

Search our weather history database for the weather conditions in past years. The results will help you decide how hot, cold, wet, or windy it might be!

Date:

Astronomy

Oct. 06, 2012 Rise Set
Actual Time 6:59 AM MDT 6:32 PM MDT
Civil Twilight 6:33 AM MDT 6:59 PM MDT
Nautical Twilight 6:02 AM MDT 7:30 PM MDT
Astronomical Twilight 5:30 AM MDT 8:01 PM MDT
Moon 10:52 PM MDT (10/6) 12:54 PM MDT (10/6)
Length of Visible Light 12h 26m
Length of Day
11h 32m
Waning Gibbous, 65% of the Moon is Illuminated
Oct 6
Waning Gibbous
Oct 8
Last Quarter
Oct 15
New
Oct 21
First Quarter
Oct 29
Full

Hourly Weather History & Observations

Time (MDT) Temp. Windchill Dew Point Humidity Pressure Visibility Wind Dir Wind Speed Gust Speed Precip Events Conditions
12:07 AM 30.2 °F - 30.2 °F 100% 30.20 in 3.0 mi Calm Calm - N/A   Overcast
12:47 AM 30.2 °F 22.6 °F 30.2 °F 100% 30.20 in 5.0 mi South 8.1 mph - N/A   Overcast
1:11 AM 30.2 °F 22.6 °F 30.2 °F 100% 30.20 in 10.0 mi South 8.1 mph - N/A   Overcast
1:25 AM 30.2 °F 23.4 °F 30.2 °F 100% 30.20 in 10.0 mi SSW 6.9 mph - N/A   Overcast
1:44 AM 30.2 °F 21.9 °F 30.2 °F 100% 30.19 in 10.0 mi South 9.2 mph - N/A   Overcast
2:11 AM 30.2 °F 22.6 °F 30.2 °F 100% 30.18 in 10.0 mi South 8.1 mph - N/A   Overcast
2:26 AM 30.2 °F 21.9 °F 28.4 °F 93% 30.18 in 10.0 mi South 9.2 mph - N/A   Overcast
2:51 AM 30.2 °F 21.3 °F 30.2 °F 100% 30.16 in 10.0 mi South 10.4 mph - N/A   Overcast
3:27 AM 30.2 °F 21.3 °F 28.4 °F 93% 30.15 in 10.0 mi South 10.4 mph - N/A   Overcast
3:41 AM 30.2 °F 19.8 °F 28.4 °F 93% 30.15 in 10.0 mi South 13.8 mph - N/A   Overcast
4:11 AM 30.2 °F 19.8 °F 28.4 °F 93% 30.15 in 10.0 mi South 13.8 mph - N/A   Overcast
4:24 AM 30.2 °F 21.9 °F 30.2 °F 100% 30.15 in 10.0 mi South 9.2 mph - N/A   Overcast
4:51 AM 30.2 °F 20.8 °F 28.4 °F 93% 30.15 in 10.0 mi South 11.5 mph - N/A   Overcast
5:11 AM 30.2 °F 19.8 °F 28.4 °F 93% 30.15 in 10.0 mi South 13.8 mph - N/A   Overcast
5:24 AM 30.2 °F 19.8 °F 28.4 °F 93% 30.15 in 10.0 mi South 13.8 mph - N/A   Overcast
5:50 AM 30.2 °F 20.2 °F 28.4 °F 93% 30.15 in 10.0 mi South 12.7 mph - N/A   Overcast
6:10 AM 28.4 °F 19.7 °F 28.4 °F 100% 30.15 in 10.0 mi SSW 9.2 mph - N/A   Overcast
6:22 AM 28.4 °F 21.2 °F 28.4 °F 100% 30.16 in 10.0 mi SSW 6.9 mph - N/A   Overcast
6:51 AM 30.2 °F 24.3 °F 28.4 °F 93% 30.18 in 10.0 mi WSW 5.8 mph - N/A   Overcast
7:09 AM 30.2 °F 24.3 °F 28.4 °F 93% 30.18 in 10.0 mi WSW 5.8 mph - N/A   Overcast
7:22 AM 30.2 °F 23.4 °F 28.4 °F 93% 30.18 in 10.0 mi WSW 6.9 mph - N/A   Overcast
7:42 AM 30.2 °F 23.4 °F 28.4 °F 93% 30.19 in 1.8 mi WSW 6.9 mph - N/A Snow Light Snow
8:10 AM 30.2 °F 23.4 °F 30.2 °F 100% 30.19 in 2.0 mi WSW 6.9 mph - N/A   Overcast
8:28 AM 30.2 °F 24.3 °F 30.2 °F 100% 30.20 in 2.0 mi NNW 5.8 mph - N/A Snow Light Snow
8:40 AM 30.2 °F 21.9 °F 30.2 °F 100% 30.20 in 1.5 mi North 9.2 mph - N/A Snow Light Snow
9:07 AM 30.2 °F 24.3 °F 30.2 °F 100% 30.20 in 2.0 mi NNW 5.8 mph - N/A   Overcast
9:30 AM 30.2 °F 24.3 °F 30.2 °F 100% 30.20 in 10.0 mi NNW 5.8 mph - N/A   Overcast
9:48 AM 30.2 °F 24.3 °F 28.4 °F 93% 30.20 in 10.0 mi NNW 5.8 mph - N/A   Overcast
10:08 AM 32.0 °F 25.6 °F 28.4 °F 87% 30.21 in 10.0 mi NW 6.9 mph - N/A   Overcast
10:31 AM 32.0 °F 24.8 °F 30.2 °F 93% 30.21 in 10.0 mi NNW 8.1 mph - 0.01 in   Overcast
10:51 AM 32.0 °F 24.8 °F 30.2 °F 93% 30.21 in 10.0 mi NNW 8.1 mph - 0.02 in   Overcast
11:11 AM 32.0 °F 24.2 °F 28.4 °F 87% 30.21 in 10.0 mi NNW 9.2 mph - N/A   Overcast
11:31 AM 32.0 °F 23.6 °F 30.2 °F 93% 30.22 in 10.0 mi NNW 10.4 mph 16.1 mph N/A   Overcast
11:43 AM 32.0 °F 23.6 °F 28.4 °F 87% 30.23 in 10.0 mi NNW 10.4 mph - N/A   Overcast
12:07 PM 30.2 °F 19.8 °F 28.4 °F 93% 30.23 in 10.0 mi North 13.8 mph 18.4 mph N/A   Overcast
12:20 PM 30.2 °F 20.2 °F 28.4 °F 93% 30.23 in 10.0 mi North 12.7 mph - N/A   Overcast
12:48 PM 30.2 °F 22.6 °F 28.4 °F 93% 30.24 in 10.0 mi North 8.1 mph - N/A   Overcast
1:05 PM 30.2 °F 20.2 °F 26.6 °F 86% 30.23 in 10.0 mi North 12.7 mph 18.4 mph N/A   Overcast
1:22 PM 30.2 °F 20.2 °F 26.6 °F 86% 30.23 in 10.0 mi North 12.7 mph - N/A   Overcast
1:51 PM 30.2 °F 19.8 °F 26.6 °F 86% 30.23 in 10.0 mi North 13.8 mph 17.3 mph N/A   Overcast
2:04 PM 30.2 °F 20.8 °F 26.6 °F 86% 30.23 in 10.0 mi North 11.5 mph - N/A   Overcast
2:22 PM 30.2 °F 19.8 °F 26.6 °F 86% 30.23 in 10.0 mi North 13.8 mph - N/A   Overcast
2:42 PM 28.4 °F 17.5 °F 26.6 °F 93% 30.23 in 10.0 mi North 13.8 mph 19.6 mph N/A   Overcast
3:08 PM 30.2 °F 20.2 °F 26.6 °F 86% 30.23 in 10.0 mi North 12.7 mph - N/A   Overcast
3:21 PM 28.4 °F 18.0 °F 26.6 °F 93% 30.23 in 10.0 mi North 12.7 mph - N/A   Overcast
3:49 PM 28.4 °F 18.5 °F 26.6 °F 93% 30.23 in 10.0 mi North 11.5 mph - N/A   Overcast
4:11 PM 28.4 °F 19.1 °F 26.6 °F 93% 30.23 in 4.0 mi NNE 10.4 mph - N/A   Overcast
4:27 PM 28.4 °F 19.1 °F 26.6 °F 93% 30.23 in 2.5 mi North 10.4 mph - N/A   Overcast
4:50 PM 28.4 °F 20.4 °F 26.6 °F 93% 30.23 in 3.0 mi NE 8.1 mph - N/A   Overcast
4:59 PM 28.4 °F 19.7 °F 26.6 °F 93% 30.23 in 2.5 mi NNE 9.2 mph - N/A   Overcast
5:31 PM 26.6 °F 17.5 °F 26.6 °F 100% 30.23 in 3.0 mi NNE 9.2 mph - N/A   Overcast
5:46 PM 26.6 °F 18.2 °F 26.6 °F 100% 30.24 in 4.0 mi NNE 8.1 mph - N/A   Overcast
6:11 PM 26.6 °F 19.1 °F 26.6 °F 100% 30.24 in 4.0 mi NE 6.9 mph - N/A   Overcast
6:27 PM 26.6 °F 18.2 °F 24.8 °F 93% 30.24 in 7.0 mi ENE 8.1 mph - N/A   Overcast
6:46 PM 26.6 °F 18.2 °F 24.8 °F 93% 30.25 in 4.0 mi ENE 8.1 mph - N/A   Overcast
7:09 PM 26.6 °F 17.5 °F 24.8 °F 93% 30.24 in 10.0 mi ENE 9.2 mph - N/A   Overcast
7:30 PM 26.6 °F 19.1 °F 24.8 °F 93% 30.24 in 10.0 mi East 6.9 mph - N/A   Overcast
7:51 PM 26.6 °F 17.5 °F 23.0 °F 86% 30.25 in 10.0 mi East 9.2 mph - N/A   Overcast
8:11 PM 26.6 °F 17.5 °F 23.0 °F 86% 30.25 in 10.0 mi East 9.2 mph - N/A   Overcast
8:25 PM 26.6 °F 17.5 °F 23.0 °F 86% 30.25 in 10.0 mi ESE 9.2 mph - N/A   Overcast
8:40 PM 26.6 °F 19.1 °F 23.0 °F 86% 30.24 in 10.0 mi East 6.9 mph - N/A   Overcast
9:02 PM 26.6 °F 20.0 °F 23.0 °F 86% 30.24 in 10.0 mi ESE 5.8 mph - N/A   Overcast
9:23 PM 26.6 °F 20.0 °F 24.8 °F 93% 30.24 in 10.0 mi SE 5.8 mph - N/A   Overcast
9:47 PM 26.6 °F 20.0 °F 24.8 °F 93% 30.23 in 10.0 mi SSE 5.8 mph - N/A   Overcast
10:11 PM 26.6 °F - 24.8 °F 93% 30.23 in 10.0 mi Calm Calm - N/A   Overcast
10:20 PM 26.6 °F 21.2 °F 24.8 °F 93% 30.23 in 10.0 mi South 4.6 mph - N/A   Overcast
10:39 PM 26.6 °F 19.1 °F 24.8 °F 93% 30.21 in 10.0 mi SSE 6.9 mph - N/A   Overcast
11:00 PM 26.6 °F 18.2 °F 24.8 °F 93% 30.21 in 10.0 mi South 8.1 mph - N/A   Overcast
11:31 PM 26.6 °F 17.5 °F 24.8 °F 93% 30.20 in 10.0 mi South 9.2 mph - N/A   Overcast
11:40 PM 28.4 °F 19.7 °F 24.8 °F 86% 30.20 in 10.0 mi South 9.2 mph - N/A   Overcast